This demonstration page uses our WeatherBlox Daily Observations layout. Learn more.

Hourly Observations for July 5, 2019

Temp ( °F °C ) Dew Point ( °F °C ) Humidity (%) Winds ( mph kmh ) Pressure ( in mb ) Visibility ( mi km ) Precip ( " mm )
12:15 am 00:15 Cloudy with Thunderstorms 78 25.4 71 21.9 81 81 E 18 30 29.85 1011 10 16.09344 0 0
12:35 am 00:35 Cloudy with Thunderstorms 76 24.3 71 21.6 85 85 E 26 43 29.85 1011 7 11.265408 0.01 0.254
12:55 am 00:55 Windy with Storms Likely 72 22.4 66 18.9 81 81 ENE 22 35 29.91 1013 10 16.09344 0.03 0.762
1:15 am 01:15 Cloudy with Light Thunderstorms 71 21.4 61 15.9 71 71 E 18 30 29.94 1014 10 16.09344 0 0
1:35 am 01:35 Cloudy with Thunderstorms 71 21.4 61 16.1 72 72 W 16 26 30 1016 10 16.09344 0.04 1.016
1:55 am 01:55 Cloudy with Heavy Thunderstorms 64 17.5 59 14.9 85 85 WNW 18 30 30 1016 5 8.04672 0.24 6.096
2:15 am 02:15 Cloudy with Heavy Thunderstorms 65 18.1 62 16.9 93 93 NE 10 17 29.97 1015 2 3.218688 0.3 7.62
2:35 am 02:35 Cloudy with Thunderstorms 66 19.1 62 16.5 85 85 E 12 19 29.91 1013 10 16.09344 0.37 9.398
2:55 am 02:55 Mostly Cloudy with Light Thunderstorms 64 17.7 62 16.5 93 93 ESE 13 20 29.88 1012 10 16.09344 0.4 10.16
3:15 am 03:15 Partly Cloudy with Nearby Thunderstorms 64 17.9 62 16.6 92 92 SSE 10 17 29.91 1013 10 16.09344 0 0
3:35 am 03:35 Partly Cloudy 64 17.6 63 17 96 96 SE 10 17 29.91 1013 10 16.09344 0 0
3:55 am 03:55 Mostly Cloudy 65 18.5 63 17 91 91 S 8 13 29.91 1013 10 16.09344 0 0
4:15 am 04:15 Cloudy 66 18.8 63 17 89 89 SW 5 7 29.94 1014 10 16.09344 0 0
4:35 am 04:35 Cloudy 68 20.2 62 16.5 79 79 N 8 13 29.94 1014 10 16.09344 0 0
4:55 am 04:55 Cloudy 67 19.7 64 17.6 88 88 ENE 5 7 29.97 1015 10 16.09344 0 0
5:15 am 05:15 Cloudy 67 19.7 63 17.4 87 87 N 10 17 30 1016 10 16.09344 0 0
5:35 am 05:35 Cloudy with Light Rain 64 18 64 17.5 97 97 NNE 5 7 30 1016 3 4.828032 0.21 5.334
5:55 am 05:55 Cloudy with Light Rain 65 18.1 64 17.8 98 98 E 9 15 30 1016 10 16.09344 0.22 5.588
6:15 am 06:15 Cloudy with Nearby Thunderstorms 65 18.3 64 17.9 98 98 Calm 29.97 1015 10 16.09344 0 0
6:35 am 06:35 Cloudy with Nearby Thunderstorms 65 18.5 64 18 97 97 E 8 13 29.97 1015 10 16.09344 0 0
6:55 am 06:55 Cloudy with Nearby Thunderstorms 65 18.3 65 18.2 99 99 NNE 13 20 30.06 1018 10 16.09344 0 0
7:15 am 07:15 Cloudy with Rain 66 18.7 65 18.2 97 97 NNE 13 20 30.03 1017 10 16.09344 0.01 0.254
7:35 am 07:35 Cloudy with Heavy Thunderstorms 65 18.5 65 18.2 98 98 N 10 17 30.06 1018 5 8.04672 0.12 3.048
7:55 am 07:55 Cloudy 65 18.5 65 18.2 98 98 N 10 17 30.06 1018 10 16.09344 0.14 3.556
8:15 am 08:15 Cloudy with Heavy Thunderstorms 65 18.5 64 17.7 95 95 NE 25 41 30.03 1017 7 11.265408 0.07 1.778
8:35 am 08:35 Partly Cloudy with Light Thunderstorms 65 18.3 64 17.5 95 95 NE 13 20 30.06 1018 10 16.09344 0.19 4.826
8:55 am 08:55 Partly Cloudy with Light Rain 65 18.3 63 17.3 94 94 N 10 17 30.03 1017 10 16.09344 0.19 4.826
9:15 am 09:15 Partly Cloudy 65 18.6 63 17.2 92 92 NNE 10 17 30.03 1017 10 16.09344 0 0
9:35 am 09:35 Partly Cloudy 67 19.2 64 17.9 92 92 NNE 14 22 30.03 1017 10 16.09344 0 0
9:55 am 09:55 Partly Cloudy 68 19.9 64 17.8 88 88 NNE 16 26 30.03 1017 10 16.09344 0 0
10:15 am 10:15 Partly Cloudy 67 19.7 63 17.3 86 86 NE 13 20 30.03 1017 10 16.09344 0 0
10:35 am 10:35 Sunny 68 20.1 64 17.5 85 85 ENE 10 17 30.06 1018 10 16.09344 0 0
10:55 am 10:55 Sunny 68 20.1 64 17.7 86 86 ENE 13 20 30.03 1017 10 16.09344 0 0
11:15 am 11:15 Sunny 69 20.3 64 17.6 85 85 E 15 24 30.03 1017 10 16.09344 0 0
11:35 am 11:35 Sunny 69 20.7 64 18 85 85 ENE 8 13 30 1016 10 16.09344 0 0
11:55 am 11:55 Sunny 71 21.5 65 18.3 82 82 ESE 5 7 30 1016 10 16.09344 0 0
12:15 pm 12:15 Sunny 72 22 65 18.3 80 80 Calm 30.03 1017 10 16.09344 0 0
12:35 pm 12:35 Sunny 72 22.3 64 17.8 76 76 ENE 3 6 30.03 1017 10 16.09344 0 0
12:55 pm 12:55 Sunny 73 23 65 18.1 74 74 Calm 30.03 1017 10 16.09344 0 0
1:15 pm 13:15 Sunny 74 23.6 65 18.4 73 73 NE 3 6 30 1016 10 16.09344 0 0
1:35 pm 13:35 Sunny 75 24.1 66 18.7 72 72 SSW 6 9 29.97 1015 10 16.09344 0 0
1:55 pm 13:55 Sunny 75 23.8 64 17.8 69 69 Calm 30 1016 10 16.09344 0 0
2:15 pm 14:15 Sunny with Nearby Thunderstorms 76 24.3 66 18.9 72 72 SW 5 7 29.97 1015 10 16.09344 0 0
2:35 pm 14:35 Sunny 77 24.9 68 19.8 73 73 SW 5 7 29.97 1015 10 16.09344 0 0
2:55 pm 14:55 Sunny 77 25.1 68 19.8 73 73 S 5 7 29.97 1015 10 16.09344 0 0
3:15 pm 15:15 Sunny 78 25.4 68 20.1 73 73 SW 5 7 29.97 1015 10 16.09344 0 0
3:35 pm 15:35 Sunny 76 24.5 67 19.5 74 74 WSW 3 6 29.97 1015 10 16.09344 0 0
3:55 pm 15:55 Partly Cloudy with Nearby Thunderstorms 77 24.9 68 20 74 74 Calm 29.97 1015 10 16.09344 0 0
4:15 pm 16:15 Partly Cloudy with Nearby Thunderstorms 76 24.5 68 20 76 76 Calm 30 1016 10 16.09344 0 0
4:35 pm 16:35 Partly Cloudy with Nearby Thunderstorms 75 24.1 70 21.1 83 83 Calm 30.03 1017 10 16.09344 0 0
4:55 pm 16:55 Sunny with Light Rain 75 24 71 21.6 87 87 Calm 30.03 1017 10 16.09344 0 0
5:15 pm 17:15 Sunny 75 24 71 21.5 86 86 N 5 7 29.97 1015 10 16.09344 0 0
5:35 pm 17:35 Sunny with Nearby Thunderstorms 78 25.8 69 20.3 72 72 Calm 29.97 1015 10 16.09344 0 0
5:55 pm 17:55 Sunny 80 26.7 69 20.6 69 69 NNW 3 6 29.97 1015 10 16.09344 0 0
6:15 pm 18:15 Sunny 80 26.5 69 20.3 69 69 ESE 3 6 29.97 1015 10 16.09344 0 0
6:35 pm 18:35 Sunny 79 26.3 68 20.2 69 69 Calm 29.97 1015 10 16.09344 0 0
6:55 pm 18:55 Sunny 79 26.3 69 20.3 70 70 Calm 29.97 1015 10 16.09344 0 0
7:15 pm 19:15 Sunny 79 26.2 69 20.7 72 72 Calm 29.97 1015 10 16.09344 0 0
7:35 pm 19:35 Sunny 79 26.2 70 21.1 74 74 NE 5 7 29.97 1015 10 16.09344 0 0
7:55 pm 19:55 Sunny 79 26.2 70 21.2 74 74 E 6 9 29.97 1015 10 16.09344 0 0
8:15 pm 20:15 Sunny 78 25.7 71 21.4 77 77 E 6 9 29.97 1015 10 16.09344 0 0
8:35 pm 20:35 Mostly Cloudy 77 25.2 71 21.8 82 82 E 5 7 30 1016 10 16.09344 0 0
8:55 pm 20:55 Mostly Cloudy 77 24.9 72 22.1 85 85 E 5 7 29.97 1015 10 16.09344 0 0
9:15 pm 21:15 Cloudy 76 24.3 72 22.4 89 89 ENE 3 6 29.97 1015 7 11.265408 0 0
9:35 pm 21:35 Cloudy 75 23.9 73 22.6 92 92 ENE 3 6 30 1016 10 16.09344 0 0
9:55 pm 21:55 Cloudy 75 24 72 22.4 91 91 NE 3 6 30.03 1017 10 16.09344 0 0
10:15 pm 22:15 Cloudy 75 24 72 22 89 89 ENE 6 9 30.03 1017 10 16.09344 0 0
10:35 pm 22:35 Cloudy 75 24 72 22 89 89 E 8 13 30.03 1017 10 16.09344 0 0
10:55 pm 22:55 Cloudy 75 23.8 71 21.5 87 87 E 8 13 30.03 1017 10 16.09344 0 0
11:15 pm 23:15 Cloudy 75 23.7 70 21.3 86 86 ENE 8 13 30.03 1017 10 16.09344 0 0
11:35 pm 23:35 Cloudy 74 23.4 70 21.1 87 87 ENE 8 13 30.03 1017 10 16.09344 0 0
11:55 pm 23:55 Cloudy with Light Rain 73 22.8 70 21 90 90 ENE 7 11 30.03 1017 10 16.09344 0 0

Powered by AerisWeather